Theta_e
312 312 312 312 312 312 312 312 312 312 312 312 312 312 313 313 313 314 314 314 313 314 314 314 314 314 314 314 314 314 314 309 306 304 302 304 311 316 320 321 321 322 323 304 305 305 301 301 301 301 301 299 299 298 300 302 297 294 290 283 283 284 284 287 288 288 290 291 293 294 293 294 293 294 302 325 323 324 324 326 330 332 331 333 333 335 336 337
312 312 312 312 312 312 312 312 313 312 312 312 312 312 312 313 313 313 313 313 313 313 313 313 313 314 314 313 313 314 311 307 303 303 302 312 319 319 320 323 325 324 320 305 301 299 300 298 298 299 298 296 300 297 301 298 301 291 285 284 286 285 287 290 290 290 291 292 293 294 293 293 293 293 298 318 317 319 321 325 329 327 330 332 333 334 335 336
311 312 312 312 312 312 312 312 312 312 312 312 312 312 312 312 313 313 313 313 313 313 313 313 313 313 313 313 313 314 309 305 301 296 302 324 322 320 322 324 326 326 311 303 299 300 300 299 298 299 296 294 300 296 299 297 299 294 286 285 288 287 287 289 290 292 292 293 293 293 293 292 294 294 302 317 316 321 319 321 325 326 325 329 331 333 334 335
311 311 311 312 312 312 312 312 312 312 312 312 312 312 312 312 313 313 312 313 313 313 313 313 313 313 313 313 313 311 306 300 291 298 307 324 327 323 324 328 327 322 306 303 302 299 298 299 299 299 297 295 295 298 295 297 296 293 292 288 289 289 291 292 293 292 293 293 292 292 292 293 295 294 313 316 316 315 318 325 326 325 327 329 331 332 333 333
311 311 311 311 311 312 312 312 312 312 312 312 312 312 312 312 312 312 313 313 313 313 313 312 313 313 312 313 313 309 302 285 300 304 309 332 332 324 324 330 326 309 305 302 300 298 299 299 299 296 294 292 294 296 294 296 295 292 294 296 292 293 292 293 294 293 293 294 292 291 292 294 294 304 315 316 310 308 315 322 328 331 331 330 330 331 333 332
310 310 311 311 311 311 312 312 312 311 311 311 312 312 312 312 312 312 312 312 312 312 313 312 312 312 313 313 308 306 291 280 295 300 327 333 332 325 327 330 321 304 303 301 298 296 298 297 298 295 293 292 293 292 293 296 298 291 293 294 293 293 293 294 296 297 295 293 293 292 294 293 294 293 302 315 313 310 318 327 331 333 333 333 333 333 332 331
310 310 310 310 311 311 311 311 311 311 311 311 312 312 312 312 312 312 312 312 312 312 312 312 312 312 312 311 302 297 290 291 299 304 330 335 331 327 327 330 325 303 300 298 297 297 294 294 294 292 292 292 292 292 294 297 297 295 293 294 295 293 292 293 297 296 294 292 294 295 293 292 292 290 295 314 318 315 326 331 334 334 334 334 332 332 332 331
309 310 310 310 310 311 311 311 311 311 311 312 312 312 312 312 312 312 312 312 312 312 312 312 312 312 312 303 300 294 289 289 297 300 336 333 327 325 326 319 311 302 300 298 296 295 294 294 294 293 291 291 291 295 296 295 294 294 293 293 294 295 294 295 294 293 293 293 293 293 291 293 293 292 304 303 311 322 329 332 333 334 334 333 332 332 332 331
310 310 310 310 310 310 311 311 311 311 311 311 311 311 312 311 311 311 312 311 311 311 312 312 311 312 312 304 294 286 286 291 299 316 321 322 321 319 316 312 306 302 299 296 295 295 297 293 294 294 289 292 294 295 294 294 291 293 294 296 295 296 296 295 293 293 293 294 293 292 292 293 292 293 302 304 315 326 331 331 333 333 332 332 332 332 332 332
310 310 310 310 310 310 310 310 311 311 311 311 311 311 311 311 311 311 311 311 311 311 311 312 311 311 304 300 291 285 293 295 316 318 322 319 315 312 305 306 305 300 300 296 294 296 297 294 296 296 294 294 295 294 293 294 291 292 293 293 295 295 293 292 291 291 291 291 290 292 292 292 293 300 293 304 323 328 330 331 333 333 331 332 332 333 333 332
309 310 310 310 310 310 310 310 311 311 311 311 311 311 311 311 311 311 311 311 311 311 311 312 311 309 301 301 290 286 295 313 313 315 318 315 312 308 306 305 303 302 299 296 295 297 296 296 296 298 298 294 294 293 293 293 295 294 294 292 290 290 290 291 289 290 290 292 290 291 291 292 290 292 290 303 326 328 327 329 330 331 332 332 333 333 334 333
309 310 310 310 310 310 310 310 310 311 311 311 311 310 310 310 310 310 311 310 310 311 311 312 311 308 305 299 291 291 298 313 312 310 315 312 310 310 309 306 304 304 300 297 296 297 296 297 299 298 291 297 292 294 293 294 294 293 292 289 288 289 291 288 290 292 290 291 292 290 291 291 291 290 290 307 327 326 327 328 329 330 330 332 332 333 333 333
309 310 310 310 310 310 310 310 310 310 310 310 310 310 310 310 310 310 310 310 310 310 311 311 309 306 301 288 293 301 301 301 302 304 303 302 303 308 309 305 306 304 303 300 297 298 297 297 299 297 297 295 293 292 295 295 293 293 292 288 288 287 287 289 289 290 291 292 291 292 284 283 286 290 291 322 325 325 326 326 328 328 329 330 331 332 332 334
309 309 309 310 310 310 310 310 310 310 310 310 310 310 309 309 310 310 310 309 310 310 311 312 310 305 300 288 294 299 301 302 304 304 304 305 302 302 306 304 306 304 303 301 298 298 298 298 300 299 299 296 295 297 295 291 290 290 289 289 285 283 281 286 289 289 291 292 290 293 285 284 287 291 292 320 326 324 323 325 326 327 327 328 329 330 330 332
309 309 309 309 309 310 310 310 310 310 310 310 310 309 309 309 310 310 310 310 309 310 310 312 307 304 293 293 302 305 316 307 305 304 305 304 303 303 302 302 301 302 301 300 301 300 299 299 299 296 293 297 296 294 288 284 284 284 286 282 280 283 282 287 291 291 291 291 291 291 285 286 290 291 300 323 326 324 322 324 326 326 327 327 328 329 329 331
309 309 309 309 309 309 309 309 310 310 310 310 309 309 309 309 310 310 309 309 311 311 308 302 303 302 292 289 299 314 314 303 303 310 308 306 304 303 301 301 299 300 300 300 300 300 298 299 294 292 294 294 293 287 284 283 282 281 284 280 281 281 281 286 290 288 289 290 291 291 285 284 289 288 292 316 325 324 322 324 325 325 326 327 327 328 329 329
309 309 309 309 309 309 309 309 309 309 309 309 309 308 308 309 311 310 311 311 310 308 304 300 303 302 287 294 305 301 299 302 307 310 307 307 305 302 300 299 298 296 297 298 298 297 296 296 295 295 291 291 285 285 284 278 279 279 281 283 281 283 283 282 286 290 289 290 289 287 289 286 289 291 291 302 323 322 321 323 324 325 326 327 327 327 328 328
308 308 308 308 308 308 309 309 309 309 309 308 307 307 305 309 311 311 309 308 307 305 304 306 301 292 289 299 294 296 303 304 305 308 308 307 306 303 301 300 296 296 296 296 297 295 295 292 293 288 288 288 287 283 282 278 279 279 280 281 281 281 283 283 284 286 290 288 288 287 287 287 290 291 291 300 321 321 320 322 324 325 326 326 327 327 327 328
308 308 308 308 308 308 309 309 309 309 308 308 307 307 308 310 305 302 304 304 297 291 288 290 289 283 285 293 296 299 301 304 305 305 303 305 304 303 304 300 298 298 293 293 293 293 293 291 291 287 286 285 285 286 285 283 283 282 282 282 280 282 283 282 284 288 290 288 288 288 286 289 290 290 289 292 315 320 320 320 323 324 325 326 326 327 327 326
308 308 308 308 308 308 308 308 308 309 308 305 303 301 298 290 285 286 298 301 297 296 294 296 297 294 298 299 299 301 304 305 301 301 304 308 305 301 301 301 297 294 292 290 291 292 291 286 284 285 284 286 285 286 287 285 285 285 284 285 282 282 285 286 286 289 290 289 287 289 288 286 288 290 290 292 304 318 319 316 319 322 323 324 325 326 325 322
308 307 308 308 308 308 308 308 308 308 307 303 300 293 289 289 286 285 288 292 298 300 298 299 300 298 297 299 300 300 297 297 300 299 304 305 303 301 297 298 294 293 290 291 290 296 293 286 286 287 287 287 289 287 287 287 288 287 286 284 284 282 284 287 287 288 290 289 284 286 288 288 290 292 292 291 302 313 317 316 316 319 322 323 324 325 322 320
307 307 308 308 308 308 308 308 308 307 306 300 297 294 294 293 298 297 293 288 293 296 298 299 299 298 302 302 303 302 300 295 296 297 300 306 301 297 293 294 289 291 290 290 291 288 285 285 287 288 289 289 289 288 288 288 287 286 285 284 282 284 284 287 288 289 291 289 286 286 287 289 292 293 292 291 300 309 316 318 317 318 319 321 323 325 319 319
307 307 307 307 307 308 308 308 307 305 296 294 293 294 294 299 300 301 299 291 290 295 295 296 295 296 297 301 301 303 295 293 291 295 298 302 296 298 293 292 290 289 289 290 287 284 284 285 288 289 289 289 288 287 287 286 287 285 284 283 283 284 284 281 284 288 290 290 287 288 288 289 292 292 291 293 295 300 309 316 317 318 318 320 323 324 319 318
307 307 307 307 307 307 307 307 304 298 293 295 296 296 300 301 300 301 295 288 288 293 295 297 297 296 296 295 299 300 295 293 294 294 301 299 296 294 293 292 289 289 288 288 289 286 287 288 289 288 288 289 288 287 286 285 283 283 285 283 283 284 283 284 285 287 288 289 290 288 286 285 285 287 287 289 291 293 299 308 311 314 317 321 323 323 323 320
307 306 307 307 307 307 307 306 295 295 298 295 295 300 302 302 302 300 294 289 287 288 296 297 299 298 298 304 303 297 296 297 295 297 301 300 294 293 292 293 289 287 288 288 287 287 287 291 288 289 287 288 287 286 285 286 282 280 284 287 286 286 285 285 286 286 282 283 286 288 280 277 282 284 287 288 288 290 293 303 309 315 318 320 320 321 322 321
306 306 306 307 307 306 307 295 293 298 297 295 298 301 303 302 302 303 290 282 280 287 294 290 300 293 303 297 300 297 296 291 298 299 300 301 303 297 295 291 292 288 288 287 287 287 289 291 291 288 287 286 286 285 285 287 282 281 284 287 288 287 286 286 285 285 280 280 288 287 280 276 283 285 286 288 288 289 295 302 312 316 317 318 319 321 320 319
306 306 306 306 306 306 295 287 299 299 293 295 299 301 301 302 303 300 291 275 272 286 290 295 294 293 300 296 299 295 282 283 298 300 300 303 300 299 293 289 292 292 292 289 288 286 289 288 289 289 287 286 285 284 285 287 282 281 283 286 287 286 285 285 285 284 281 285 287 285 283 280 279 283 286 288 294 295 297 303 313 316 317 317 319 320 319 319
306 306 306 306 306 305 299 300 298 294 295 299 302 302 301 302 301 296 283 270 271 289 291 292 295 302 298 299 300 290 288 295 290 294 301 301 301 297 295 289 291 290 290 289 283 289 289 287 287 286 286 284 285 286 286 288 285 284 286 287 286 287 286 285 285 283 282 283 281 279 286 282 277 279 287 290 293 293 296 304 312 315 316 317 318 318 319 319
306 306 306 306 306 306 304 301 298 295 298 301 302 302 303 301 295 287 274 270 283 289 303 293 304 295 294 299 295 294 291 295 291 294 300 301 301 295 291 290 292 291 290 293 288 288 289 290 289 289 286 284 286 286 289 289 285 288 288 289 288 288 288 286 283 284 283 281 277 281 284 281 277 278 288 290 289 290 293 304 312 315 316 317 317 318 318 319
306 306 306 306 304 300 296 302 298 301 302 302 302 302 300 294 287 280 273 268 286 283 292 293 292 288 291 291 291 294 291 291 294 296 298 295 298 299 296 295 292 289 289 290 288 290 291 298 294 288 286 289 288 288 289 290 291 288 289 287 285 282 283 284 282 281 280 275 280 283 283 282 278 277 286 289 291 292 295 306 312 316 317 318 318 317 318 318
306 306 305 306 299 301 299 292 295 300 301 302 302 296 290 285 278 269 268 277 289 288 290 286 286 291 286 284 282 287 291 292 291 294 291 296 294 294 293 292 291 287 285 286 287 287 290 291 290 290 293 290 289 288 289 291 291 291 288 285 283 284 281 281 276 278 274 272 278 280 284 282 278 277 283 291 298 298 298 302 309 313 315 316 317 318 318 319
305 305 305 304 304 304 295 291 293 301 301 302 298 288 285 276 276 272 270 289 279 284 284 283 288 287 286 286 285 288 288 290 292 292 290 290 289 290 288 283 287 281 280 281 283 286 287 288 287 289 299 293 288 287 284 286 288 287 284 284 280 275 275 272 277 275 273 276 279 281 282 282 280 280 291 299 302 303 301 302 309 313 315 316 318 318 319 319
305 305 306 305 305 302 302 303 302 302 302 300 291 283 276 268 268 273 277 282 280 286 283 289 285 287 286 284 284 288 291 288 292 291 292 290 289 290 291 289 288 287 279 281 282 283 284 285 287 288 290 294 290 284 281 285 284 284 283 280 278 275 271 266 268 270 274 278 280 281 283 281 281 286 292 301 306 307 307 305 310 315 316 317 318 318 318 319
304 305 301 303 303 304 305 303 303 300 299 296 286 281 275 268 270 291 280 282 284 288 286 285 287 285 285 284 287 289 286 293 290 291 292 289 289 286 288 289 289 289 287 281 281 280 275 278 283 286 285 289 290 290 289 285 283 286 285 286 282 277 273 268 273 271 275 278 279 281 282 278 283 284 301 305 310 311 308 306 312 316 318 318 318 318 319 318
304 303 301 300 302 304 304 304 300 302 293 287 281 275 269 269 273 275 279 280 282 285 284 288 283 282 281 283 286 287 292 288 295 291 289 288 285 285 286 288 290 288 285 282 282 278 281 279 284 288 290 291 289 291 290 285 285 284 283 285 282 280 277 279 273 277 277 278 277 279 279 283 286 298 303 307 312 312 313 312 314 315 317 318 317 317 318 318
301 297 298 297 300 302 303 304 301 299 290 285 277 273 269 274 277 280 283 287 285 284 284 285 282 278 277 279 282 285 290 290 292 290 290 289 288 287 288 290 289 289 286 283 280 280 280 280 285 287 288 289 290 291 291 289 281 284 284 282 285 286 284 275 277 279 275 274 274 276 284 289 292 296 299 305 309 310 311 313 313 314 315 316 314 314 315 315
297 299 296 299 303 304 303 304 304 294 288 282 274 270 273 279 280 283 290 286 287 286 280 278 280 280 278 279 279 282 287 291 292 290 285 289 288 289 290 290 290 290 290 288 283 283 279 279 285 287 290 291 290 290 292 290 289 284 282 285 288 289 287 281 275 270 269 271 270 279 281 281 282 283 298 302 305 307 308 311 312 312 312 310 310 310 312 313
297 297 303 304 305 304 305 304 302 292 284 278 273 286 281 283 287 286 288 287 288 287 281 279 279 283 280 280 278 282 285 285 286 288 284 289 284 293 292 290 295 291 291 289 289 287 286 281 283 285 287 289 291 291 287 290 291 288 284 288 287 278 280 280 277 272 271 269 268 279 280 280 281 282 289 300 302 304 306 307 308 307 308 309 310 311 312 313
298 297 295 302 305 305 304 305 298 290 281 276 272 278 284 284 288 288 290 290 288 285 281 280 281 282 283 279 280 282 285 282 285 284 284 287 285 292 294 293 293 294 291 290 288 284 287 281 281 285 287 289 288 286 282 282 289 289 290 289 289 283 279 279 276 278 277 269 270 275 279 277 285 283 290 296 301 304 305 305 306 307 308 308 309 309 310 311
297 294 294 304 305 306 306 303 294 287 281 279 279 279 283 286 289 290 291 291 288 285 282 282 283 281 282 282 283 281 284 286 285 284 286 286 287 295 295 298 294 295 293 291 289 288 283 284 275 281 286 287 284 286 284 281 283 284 286 281 286 284 285 284 283 281 280 271 270 271 272 277 282 288 292 298 302 305 306 306 305 306 308 309 309 310 310 311
294 291 294 303 306 306 304 296 289 285 283 283 284 285 288 288 290 292 293 293 290 291 289 285 284 282 282 281 283 286 285 284 287 285 287 288 289 284 295 296 297 296 295 294 291 288 282 283 281 281 282 278 283 287 291 291 285 282 281 282 282 281 283 280 276 281 278 278 272 274 272 278 286 301 301 301 303 304 307 306 305 307 308 309 310 310 310 310
292 288 294 305 306 306 296 288 285 286 283 284 286 289 288 297 290 289 290 291 290 288 290 289 286 286 282 283 283 284 286 284 286 287 289 287 291 290 295 296 296 296 294 288 289 291 288 282 282 280 283 286 288 291 291 294 293 289 289 287 286 280 280 277 274 277 280 282 280 278 274 277 291 303 303 302 303 304 306 306 305 306 307 308 309 310 311 311
289 290 300 305 307 302 288 279 283 283 285 286 291 290 291 291 289 290 289 289 289 289 288 287 287 286 285 286 286 285 288 284 288 287 288 291 291 294 295 295 295 293 291 288 292 293 304 282 285 281 281 283 286 288 290 291 293 288 289 288 286 285 282 280 278 278 279 280 279 277 276 277 295 303 302 303 303 304 305 306 304 304 306 308 309 309 310 310
290 292 299 304 302 298 290 283 281 278 281 287 288 289 291 290 290 288 288 288 288 287 287 286 288 288 286 287 286 287 291 282 290 290 288 290 290 295 296 296 297 295 293 292 289 294 286 286 283 278 275 277 279 283 284 287 288 284 285 286 288 288 286 282 282 280 280 281 280 278 273 278 297 302 303 302 303 302 302 302 303 301 302 302 303 303 305 306
290 293 295 297 298 299 291 284 282 277 281 284 284 284 286 288 290 290 290 289 289 288 287 286 288 289 288 288 287 288 289 287 285 291 291 291 290 294 297 296 300 298 304 303 303 295 288 285 284 278 273 270 270 271 273 277 282 283 287 287 288 287 285 284 281 280 278 279 281 277 272 282 298 301 301 301 301 299 300 300 301 302 301 300 299 299 299 300
290 286 288 291 290 291 289 289 284 283 282 284 280 283 286 284 287 289 290 289 290 289 288 289 287 289 286 286 285 285 285 289 288 287 287 286 289 292 295 294 301 300 305 307 302 294 284 285 284 281 278 277 277 276 281 285 283 283 285 285 287 285 286 283 279 276 276 276 277 278 282 289 295 297 298 300 299 298 298 299 298 297 297 297 298 297 297 298
288 284 281 285 287 286 285 284 287 286 285 283 279 284 283 284 285 287 291 286 290 289 289 287 287 284 283 284 282 283 284 285 286 286 286 286 287 291 293 294 296 302 306 303 302 290 284 283 285 285 286 284 284 283 286 287 283 285 284 285 287 286 285 284 280 281 283 280 276 279 286 291 293 297 299 298 297 297 298 297 296 295 295 296 296 297 297 298
285 284 286 288 285 282 283 281 285 284 287 287 283 286 283 283 282 281 286 290 289 289 285 285 285 286 286 284 284 280 281 282 282 280 286 287 286 288 290 293 293 297 301 297 298 291 285 282 286 285 285 287 287 286 287 286 285 284 284 284 285 287 285 283 282 282 281 278 277 283 291 292 295 298 299 298 298 298 297 296 296 297 297 297 297 296 295 296
286 286 288 291 285 282 282 287 286 284 283 285 284 285 281 282 282 285 285 285 286 285 285 278 282 284 285 284 283 281 280 278 277 281 283 282 283 281 283 286 291 291 294 294 294 291 288 284 288 287 285 287 287 287 286 285 283 283 283 283 285 288 290 288 287 287 285 282 283 292 294 292 297 299 299 298 298 296 295 296 296 295 294 294 294 293 293 294
287 285 288 287 285 284 285 283 282 280 280 285 281 283 284 283 282 284 286 285 280 284 287 283 283 284 286 284 282 281 283 283 282 278 282 283 282 282 280 283 286 291 291 292 294 294 289 284 289 285 282 284 286 287 287 285 282 282 282 284 284 284 289 291 292 292 294 293 294 294 292 289 294 299 296 295 295 295 294 293 292 293 294 293 293 292 292 293
290 288 288 287 282 283 286 281 281 279 277 279 279 282 285 283 283 285 284 288 285 284 286 284 284 285 285 285 284 283 285 284 284 285 285 284 281 286 286 288 290 286 288 289 291 290 288 285 288 284 282 281 286 285 287 286 284 282 282 283 283 282 283 286 287 290 290 290 292 292 289 287 293 296 295 295 294 292 291 291 291 292 293 292 291 292 292 292
291 293 287 282 280 285 281 280 278 279 279 280 282 282 283 284 285 284 278 283 286 287 287 287 285 285 281 283 283 284 286 286 286 287 287 287 288 289 290 292 294 288 285 289 289 286 285 285 283 283 282 279 284 286 286 286 286 282 279 283 285 283 284 288 290 291 290 292 290 288 289 292 294 295 292 290 290 289 289 290 290 290 291 292 292 292 293 293
Wind_Speed
10 11 11 11 11 11 12 12 13 13 13 13 13 13 13 13 13 13 13 14 14 14 14 14 14 15 15 15 16 16 14 10 11 6 3 13 8 8 10 2 7 15 8 3 6 8 3 3 4 1 4 3 0 2 2 1 1 2 2 4 2 5 2 4 4 6 1 3 6 11 5 6 9 7 3 2 5 4 3 6 4 7 8 6 6 16 14 12
11 11 11 12 12 12 13 13 12 13 13 13 13 13 13 13 13 13 13 13 14 14 14 14 15 15 16 15 16 16 12 8 10 9 16 8 8 11 10 9 3 12 10 2 8 5 9 2 2 4 5 2 1 1 2 1 1 2 2 2 9 4 5 6 2 3 2 6 7 8 4 3 5 3 2 1 1 2 3 4 5 8 9 11 12 15 14 14
11 11 11 11 12 12 12 12 12 12 13 13 13 13 13 13 13 13 13 13 14 14 14 14 14 14 14 15 15 14 10 7 4 5 5 7 16 11 10 7 6 16 10 6 4 8 8 9 7 5 1 3 0 2 1 1 3 3 5 4 9 4 2 4 2 6 4 6 8 10 4 6 8 3 0 1 2 3 5 5 6 7 12 12 13 15 15 14
11 11 11 11 12 12 12 12 12 12 13 13 13 14 13 13 13 13 13 13 13 14 14 14 15 14 15 15 15 9 5 4 2 1 2 6 6 12 9 6 13 15 5 3 6 4 4 8 6 5 2 3 1 1 4 2 2 2 2 7 4 3 2 2 1 5 7 2 5 5 5 8 5 4 0 2 3 4 5 8 7 14 15 16 17 17 15 14
11 11 11 11 12 12 12 12 12 12 13 13 13 13 14 14 13 13 13 13 13 14 14 14 15 15 15 15 15 5 4 2 1 1 3 9 1 12 12 8 13 9 4 5 8 5 6 6 4 1 3 2 0 1 1 2 2 3 8 6 2 2 2 4 4 7 5 4 3 4 7 6 4 2 2 5 4 6 7 8 7 7 15 19 17 15 13 12
11 11 11 11 12 12 12 12 13 13 13 13 13 13 13 14 13 14 13 13 13 13 14 14 14 15 15 15 6 1 1 1 1 2 5 5 8 14 14 10 12 7 8 6 4 4 7 3 5 2 1 2 4 5 2 2 2 3 5 5 4 5 5 2 5 7 5 4 6 6 3 2 4 6 4 4 8 5 2 4 8 10 13 13 16 18 14 14
11 11 11 12 12 12 12 12 13 13 14 14 14 14 14 14 14 13 14 13 13 13 14 14 14 15 15 11 0 2 2 7 4 7 7 5 9 15 14 10 9 5 5 6 5 5 2 5 4 3 4 2 0 2 2 0 0 3 8 1 3 2 5 6 7 8 6 3 7 4 4 4 6 5 2 3 8 4 2 5 11 13 11 12 15 15 17 16
12 12 12 12 12 13 13 13 14 13 14 14 14 15 15 15 15 14 14 13 13 13 13 14 13 13 12 4 2 2 1 7 11 5 3 8 10 13 12 5 7 4 4 6 8 5 5 6 7 3 2 7 3 6 1 1 0 4 7 1 3 3 4 5 5 7 8 8 7 3 5 10 2 4 0 5 8 1 5 7 10 14 14 11 12 14 13 11
13 13 13 13 13 13 13 13 14 14 14 14 14 14 15 14 15 14 14 13 13 13 13 13 12 11 6 3 2 4 6 6 4 4 3 7 8 11 10 5 4 6 3 4 3 6 6 3 2 4 3 3 2 2 1 1 5 5 6 3 5 5 5 5 5 8 10 7 2 3 7 8 2 5 2 8 2 3 6 9 10 14 16 14 14 13 14 13
14 14 13 14 14 14 14 14 14 14 14 14 14 14 14 14 14 14 14 13 13 12 12 11 10 9 3 2 1 3 6 5 3 3 6 9 8 9 7 5 6 5 5 3 4 7 7 6 8 4 5 1 3 2 3 5 5 3 3 4 5 7 4 3 4 6 4 3 2 3 9 4 1 5 6 1 3 6 8 10 10 12 15 14 13 11 12 15
14 14 14 14 14 14 15 15 15 15 14 15 14 14 14 15 14 15 14 13 12 12 11 10 8 7 2 1 1 4 5 3 1 3 7 8 9 7 3 7 5 4 3 1 4 6 2 6 3 3 1 2 3 1 2 3 1 2 4 4 5 5 3 5 4 9 2 4 4 6 8 2 2 1 7 5 7 7 11 13 15 13 12 10 12 11 11 12
14 15 15 15 15 15 15 15 15 15 15 15 15 14 14 14 15 14 14 13 13 11 9 7 5 2 1 2 4 9 2 2 3 3 6 7 5 7 6 8 7 7 6 5 5 3 3 4 4 3 2 1 1 0 1 3 1 4 1 4 6 6 4 2 5 5 3 5 2 5 3 7 0 4 7 3 8 7 9 13 14 10 10 9 10 10 10 11
14 15 15 15 15 15 15 15 15 15 15 15 15 15 15 15 16 15 14 13 11 10 6 5 2 1 0 3 10 8 2 1 1 3 4 3 1 3 6 7 9 7 8 5 2 4 4 2 3 3 1 2 2 1 1 1 2 2 0 1 5 5 7 5 2 2 1 4 3 5 6 7 7 9 3 4 10 7 9 11 13 8 7 7 9 10 9 8
15 15 16 16 16 16 16 15 16 15 16 16 16 16 16 17 17 17 15 13 11 8 7 3 0 1 1 6 8 4 6 3 3 5 9 3 2 2 3 3 5 4 1 2 2 3 6 2 1 1 1 1 1 2 4 3 3 2 3 1 1 3 4 5 1 2 1 2 3 3 4 8 8 9 3 4 9 14 12 12 13 11 7 7 9 9 10 12
16 16 16 16 17 16 16 15 15 16 16 16 17 17 18 19 18 15 13 9 7 6 5 4 1 2 1 9 6 12 10 2 2 9 4 5 4 0 3 3 4 4 3 2 0 0 3 3 1 1 2 1 1 2 4 3 4 2 2 6 4 2 5 11 7 1 0 2 2 4 2 8 8 7 3 5 6 7 11 12 13 13 11 8 8 10 11 12
16 16 16 17 17 17 17 16 16 16 16 17 17 19 18 19 17 12 5 4 3 6 5 2 2 2 1 9 1 2 4 1 4 7 5 7 6 7 4 7 2 2 3 0 3 1 1 2 2 5 2 1 0 0 2 4 3 5 1 4 4 0 4 4 0 5 2 3 2 1 4 4 6 1 2 3 8 7 8 10 12 13 14 11 9 8 12 10
16 17 17 17 17 17 17 17 17 17 17 17 20 17 18 15 10 2 2 6 4 4 2 1 1 2 0 3 1 0 2 3 4 1 2 4 5 3 7 4 2 3 3 0 1 2 1 1 1 1 3 2 2 2 1 3 4 2 1 1 2 3 3 1 9 1 5 3 3 4 1 5 7 11 1 4 8 7 7 11 11 11 11 12 11 10 11 9
16 17 17 17 17 17 17 17 17 17 18 18 17 15 10 9 9 9 8 6 3 2 0 1 1 2 9 2 3 2 1 4 2 2 4 2 6 3 2 1 4 5 5 2 0 2 0 1 2 4 1 1 2 2 6 5 3 1 0 1 4 2 3 4 1 3 8 2 4 4 2 7 11 9 1 6 8 9 10 11 13 12 12 11 11 11 9 5
16 17 17 18 18 17 17 17 17 18 18 17 15 10 6 4 2 1 5 3 2 1 1 2 3 4 4 2 3 5 2 5 4 1 1 5 3 3 1 2 5 5 1 2 1 4 0 1 3 1 6 2 3 6 8 3 5 3 2 1 2 4 5 2 5 5 2 5 8 7 6 7 8 8 3 5 6 10 12 8 7 9 10 10 9 9 7 7
16 17 18 18 18 17 17 17 17 17 19 10 5 3 1 1 2 1 1 0 5 8 4 4 8 4 11 11 5 4 4 2 1 2 2 1 8 5 1 1 2 4 4 2 0 3 4 4 4 8 3 4 3 6 7 6 4 3 2 1 4 5 9 1 3 4 1 2 6 8 6 4 8 9 5 6 7 8 9 6 8 9 10 10 7 10 7 9
17 17 18 18 18 18 17 17 16 17 18 5 3 0 2 0 2 3 4 10 10 7 10 9 14 11 11 0 1 5 6 4 1 1 0 2 3 8 2 3 1 2 2 3 4 1 3 5 8 6 6 7 7 6 3 3 0 2 1 2 7 3 11 0 3 3 4 4 4 1 2 6 9 9 7 4 6 12 13 12 11 12 12 11 10 11 9 8
17 17 18 18 19 19 18 18 17 18 4 0 1 2 1 1 0 1 1 8 4 13 12 17 5 8 10 12 3 3 4 3 12 4 4 6 2 8 2 4 4 7 0 2 1 1 2 7 4 6 8 4 3 4 3 4 2 1 2 2 4 8 5 5 4 1 1 4 8 3 4 10 13 11 5 6 10 11 15 16 17 16 14 11 10 11 10 11
16 17 18 19 19 19 19 19 18 4 1 2 3 0 1 1 2 3 1 3 10 4 10 7 4 13 15 2 1 8 3 7 9 3 2 6 3 6 5 4 5 4 2 3 6 2 3 6 8 5 4 4 0 3 4 2 2 2 1 0 8 1 3 6 4 4 2 0 4 5 7 10 10 7 6 8 10 9 13 15 16 14 15 15 15 16 14 12
16 17 18 19 20 20 19 20 5 2 1 0 1 4 2 2 2 2 3 3 7 5 5 6 9 4 9 1 4 9 8 4 5 8 3 6 9 3 4 6 4 3 6 5 7 8 8 3 1 5 5 6 5 2 3 2 4 2 4 4 6 1 3 6 5 3 5 5 4 3 4 7 4 5 6 5 5 8 9 6 1 2 4 6 7 9 13 15
17 17 18 19 19 21 21 13 4 1 4 2 4 5 4 3 2 1 2 4 3 5 2 0 4 4 4 1 5 7 3 0 9 2 5 10 4 4 4 1 4 5 6 5 3 3 8 8 4 6 1 2 4 2 4 5 4 3 6 10 8 5 7 7 3 3 7 6 2 2 3 4 4 3 7 7 6 5 4 4 5 7 11 12 13 14 12 10
16 16 17 18 19 21 19 1 2 5 5 3 2 1 1 2 2 0 3 3 5 5 2 2 1 2 3 1 4 4 4 4 9 7 5 8 8 5 1 2 3 9 5 4 6 3 6 1 7 6 5 3 3 4 4 6 5 1 8 11 12 10 8 7 3 2 2 1 2 2 3 6 6 4 5 6 5 8 5 4 5 10 12 12 13 13 13 13
16 16 16 17 17 18 6 1 1 7 1 1 2 3 2 2 2 2 1 4 2 2 1 1 1 1 2 3 5 3 2 4 2 3 5 4 9 1 7 5 1 1 3 2 2 5 2 3 5 3 4 4 1 5 4 9 6 4 3 7 7 6 5 6 2 5 6 1 5 2 2 3 7 8 3 7 1 4 2 2 8 10 12 13 14 13 13 13
17 16 16 16 15 10 4 6 8 3 5 1 3 5 3 3 2 2 3 2 1 2 2 1 1 2 0 3 7 6 1 1 0 2 4 1 6 0 4 7 8 8 3 5 9 3 5 4 5 4 2 3 7 5 4 9 7 6 2 7 7 9 9 4 5 5 3 1 8 5 0 0 3 5 5 3 1 5 3 1 7 11 12 11 11 12 13 13
16 16 15 16 16 15 6 5 2 6 3 3 6 6 5 1 3 3 2 1 1 2 1 2 4 2 3 1 3 4 3 1 1 2 3 1 1 5 3 6 6 5 3 10 8 1 2 6 9 9 7 6 7 4 9 11 4 5 5 2 2 2 2 4 4 3 1 1 6 4 1 1 7 6 6 3 2 4 2 4 5 10 12 9 8 10 10 11
17 16 16 16 12 4 1 3 9 7 4 7 7 7 2 2 3 1 2 3 3 2 3 2 1 4 1 1 3 4 4 3 1 1 3 3 2 1 1 3 3 3 3 1 2 6 2 2 6 6 6 8 5 5 9 11 12 3 6 4 2 5 2 3 4 2 3 1 9 6 5 3 4 3 3 1 1 2 6 4 5 9 10 9 7 10 11 11
17 17 16 14 6 2 1 4 8 6 5 5 7 2 2 7 3 3 1 3 2 1 4 4 3 2 2 2 5 3 4 2 3 5 3 0 2 2 1 4 4 4 2 2 4 3 1 1 0 3 6 2 3 1 4 8 2 1 0 1 1 1 4 2 3 4 2 6 8 3 8 5 5 4 6 6 6 5 6 8 9 11 13 11 11 10 11 11
19 19 18 10 7 4 4 5 1 1 2 5 3 4 3 1 4 3 4 3 1 5 2 5 1 3 9 3 4 1 5 1 2 3 6 5 5 6 3 5 4 1 2 4 7 3 4 6 3 5 3 10 2 3 4 1 1 4 2 2 2 2 2 1 1 1 3 6 2 1 4 2 6 6 2 7 9 7 5 8 10 11 10 9 11 13 13 12
18 20 22 13 10 8 12 12 4 6 6 4 3 4 3 4 2 4 2 4 1 2 4 1 5 11 8 5 2 2 3 3 1 2 2 1 6 6 1 3 6 6 3 2 3 1 6 2 1 5 3 4 5 5 2 0 1 6 6 5 4 1 1 1 3 1 4 7 4 2 2 2 3 5 3 8 10 9 8 8 9 10 11 11 11 11 12 13
20 20 11 5 6 10 5 2 3 2 2 2 1 5 6 3 3 2 1 1 2 2 4 2 10 8 1 2 3 2 1 1 2 1 5 2 3 3 3 1 3 2 2 1 2 5 1 2 4 3 2 1 7 9 11 6 8 9 3 10 8 8 5 3 3 4 6 7 2 3 3 3 2 2 3 6 9 7 6 6 5 6 6 7 6 10 11 12
21 15 7 4 5 8 10 4 1 1 1 3 7 5 4 5 1 1 0 2 2 3 4 5 3 2 4 4 2 2 1 0 2 3 1 6 4 3 5 6 3 4 2 3 2 2 5 5 6 4 0 1 5 4 3 4 3 2 3 5 5 5 6 3 4 3 2 1 1 1 1 1 2 2 4 3 6 2 4 3 5 5 2 3 6 9 9 10
13 3 0 2 2 2 8 6 3 0 2 5 5 2 2 2 1 1 1 2 1 2 7 8 1 4 2 4 2 4 6 1 2 2 2 1 2 5 3 2 4 7 6 6 4 2 2 2 2 6 2 3 5 2 2 6 2 3 4 5 8 3 8 5 2 2 4 4 3 0 4 3 5 3 2 6 5 4 0 2 3 3 5 5 6 8 8 5
4 6 1 2 2 2 6 6 5 3 5 7 6 1 3 1 4 3 2 1 3 2 2 4 3 2 2 3 2 5 4 4 1 1 2 1 1 2 1 2 4 4 6 7 2 3 3 5 4 1 9 3 1 4 2 2 5 5 2 7 1 3 5 4 4 2 2 3 4 1 1 4 2 2 2 3 3 4 7 3 7 7 7 7 8 10 9 12
6 4 4 3 1 5 6 7 6 4 4 3 1 3 1 0 1 2 1 1 2 1 0 1 3 3 2 1 5 3 5 3 3 2 1 1 2 2 1 2 0 3 7 3 4 2 2 3 4 2 4 7 5 1 3 2 1 7 3 4 3 1 2 3 4 0 0 1 2 1 1 2 4 4 2 0 3 4 5 8 7 7 6 7 8 8 9 10
3 1 1 1 2 7 6 8 2 3 3 4 1 1 1 3 2 1 4 1 2 1 0 2 1 1 1 2 4 3 1 2 1 0 2 1 1 2 1 3 0 0 2 8 5 1 1 1 7 2 1 4 3 4 2 2 3 2 3 4 1 3 2 3 4 3 4 2 2 4 1 3 5 4 2 3 2 4 5 6 8 6 6 5 6 7 7 7
1 1 2 1 5 3 6 2 1 5 4 1 2 1 1 0 2 4 4 1 2 2 2 0 1 2 2 5 2 3 2 1 1 1 0 1 0 0 1 5 1 0 3 4 2 1 1 1 2 4 3 2 1 3 2 2 4 0 2 1 0 2 2 4 1 1 2 4 4 3 1 6 5 2 1 2 4 6 5 6 6 6 6 7 7 7 5 1
1 2 1 1 4 4 2 2 4 2 2 0 0 1 0 1 1 2 7 5 2 3 4 2 1 1 2 3 5 1 2 1 0 0 1 1 1 1 2 2 2 1 2 3 2 0 2 0 2 2 5 2 4 3 1 0 2 4 7 5 6 5 3 2 5 1 2 3 3 3 5 6 5 2 0 3 5 7 8 9 6 6 8 8 7 8 7 3
1 2 1 1 4 1 2 2 1 0 2 1 0 1 1 3 1 3 2 1 5 2 1 0 1 3 1 3 4 2 2 2 1 0 0 0 1 1 0 3 3 1 1 1 1 2 2 3 2 1 1 1 1 4 2 1 4 1 3 2 4 2 6 3 2 3 2 0 4 3 1 2 2 0 1 4 6 8 8 8 9 7 9 10 7 3 4 4
3 2 3 2 1 0 3 1 1 2 0 2 3 1 1 1 2 2 1 2 1 0 1 0 2 0 3 1 1 1 1 1 1 1 0 1 1 1 5 6 2 5 4 1 1 1 5 1 0 2 4 5 5 4 3 3 1 3 4 3 3 2 3 5 3 4 6 2 1 1 1 2 2 4 1 5 7 8 6 7 9 6 6 7 9 2 5 7
1 2 2 1 2 1 3 0 2 2 3 4 1 3 2 2 0 2 0 2 0 2 0 1 3 1 1 1 0 0 1 0 1 3 2 2 1 2 7 5 3 1 0 3 2 3 1 3 3 1 2 4 4 5 3 3 5 3 1 3 3 1 3 2 4 1 1 5 5 7 4 2 2 2 3 3 7 8 7 6 5 9 8 10 11 9 8 8
2 1 1 2 5 1 1 3 3 0 1 0 1 4 5 2 2 2 1 2 1 0 0 1 2 2 1 1 1 1 1 0 1 2 0 1 3 3 9 9 4 3 1 3 3 2 3 1 2 4 5 5 2 2 3 2 1 3 0 5 4 1 4 3 1 1 2 1 2 2 2 2 3 5 5 4 8 9 7 6 6 6 7 9 8 9 8 8
1 3 3 1 4 3 2 1 2 2 0 0 2 1 1 3 3 3 3 2 0 2 0 1 2 1 1 3 3 2 2 1 1 1 3 3 3 2 3 9 6 3 3 9 4 5 3 1 2 3 5 7 6 2 2 1 1 2 4 4 7 3 4 5 6 4 2 2 0 4 2 4 6 5 6 6 6 7 6 6 7 7 7 7 9 7 6 6
0 4 1 2 2 4 1 2 2 1 0 2 1 0 2 1 2 3 1 1 2 2 1 3 2 2 2 2 1 1 1 3 5 3 3 2 3 2 9 7 4 10 6 1 5 5 3 4 2 5 6 1 2 4 3 0 3 1 3 6 6 6 6 3 3 1 4 6 1 2 2 5 6 6 6 7 7 7 6 5 6 6 6 7 8 8 7 9
1 1 2 1 3 2 1 1 1 2 1 0 1 1 1 2 3 1 4 0 1 2 1 2 6 3 0 1 1 0 4 3 4 2 4 3 3 7 5 5 5 8 5 2 2 3 4 3 0 2 3 3 3 3 1 3 3 3 3 4 7 8 5 4 2 1 4 2 2 1 4 6 7 7 7 7 9 7 6 7 7 6 6 8 8 9 10 10
1 1 0 1 1 1 2 0 2 4 4 1 1 2 1 1 2 1 1 3 3 2 2 0 3 4 3 2 0 1 1 1 2 1 1 4 2 3 6 6 2 9 7 2 4 1 5 2 1 2 2 5 7 5 4 5 2 3 6 6 7 7 7 6 3 1 2 2 3 5 7 5 4 5 8 7 7 9 8 7 7 9 8 8 10 9 10 8
0 1 1 4 5 3 0 2 2 3 2 3 1 1 0 1 2 4 2 1 1 1 1 1 4 3 1 3 2 2 0 1 1 1 1 1 3 0 2 3 6 7 7 2 1 1 2 0 3 1 3 3 5 4 4 5 3 4 4 9 10 9 5 7 2 2 2 7 6 9 8 3 5 3 10 8 9 8 9 10 9 8 7 8 10 10 10 9
0 1 1 5 3 3 2 3 2 2 1 3 3 2 1 1 1 0 3 1 2 1 1 1 3 4 0 2 3 1 1 1 3 4 4 2 0 2 1 3 2 5 10 3 3 3 5 1 1 2 2 2 3 6 5 2 4 5 7 13 12 10 6 6 3 4 3 4 8 9 5 1 3 7 9 8 9 9 9 8 8 7 10 10 10 10 10 11
1 0 3 5 3 4 1 1 1 2 1 1 1 2 0 1 2 1 1 2 1 1 1 1 2 0 3 3 3 4 3 3 7 8 5 5 4 2 3 3 2 2 2 2 2 2 1 5 2 2 4 1 2 3 4 3 3 2 5 7 8 4 3 5 2 5 4 5 7 7 4 4 6 6 12 8 10 10 10 8 7 10 10 10 10 10 10 11
Wind_Direction
353 351 349 346 345 344 343 344 345 343 343 343 344 344 343 344 344 343 343 344 342 339 336 333 329 328 328 330 330 326 332 327 315 308 278 242 202 208 190 124 162 195 194 73 105 105 70 82 101 25 85 85 261 107 227 72 128 62 132 114 250 209 161 209 181 191 212 317 314 331 1 351 330 345 307 37 30 360 29 48 30 39 36 82 106 116 126 128
356 351 347 345 344 344 343 345 343 341 342 341 342 342 343 342 343 343 343 342 342 340 338 335 334 332 332 330 325 328 339 318 299 280 237 231 187 203 214 221 161 178 141 69 133 128 125 141 127 99 117 90 305 98 111 235 102 104 112 113 228 188 235 165 201 230 349 297 299 302 356 360 296 326 297 63 302 356 1 45 87 79 81 90 110 124 133 138
351 349 347 345 344 344 343 343 342 341 341 340 339 340 342 341 341 342 341 341 339 340 341 338 335 332 331 328 324 337 341 310 287 273 264 246 227 200 202 205 187 159 163 148 185 141 155 171 157 110 83 92 42 146 148 236 141 220 116 220 244 182 234 210 228 280 235 263 300 320 328 350 292 277 277 223 148 11 236 152 121 131 136 134 133 136 144 146
349 347 347 346 344 344 343 342 342 341 341 340 337 338 338 339 339 340 340 338 337 338 340 339 336 335 332 327 328 342 357 305 348 261 276 295 225 190 173 157 155 154 128 89 150 115 98 104 120 110 101 90 257 98 138 246 142 265 110 214 243 194 225 280 252 239 267 292 284 294 314 328 314 285 30 165 111 242 251 239 195 166 154 146 148 149 152 151
349 347 345 345 345 343 343 343 341 341 339 338 339 336 336 336 337 337 337 337 337 338 337 338 339 334 333 329 328 2 340 41 234 250 268 327 159 163 156 144 142 139 142 117 92 78 99 121 126 51 96 170 20 80 247 238 199 120 221 248 181 4 307 258 263 269 264 261 287 297 332 291 297 341 40 154 201 233 216 215 216 175 149 148 151 153 152 149
345 345 344 343 343 344 341 340 341 339 339 338 337 336 334 334 335 334 335 336 337 336 336 339 339 337 334 333 336 49 10 34 300 307 333 336 125 149 153 142 129 114 115 115 116 126 98 65 109 119 91 102 186 144 263 190 158 239 287 262 241 242 262 289 292 276 281 317 307 312 260 338 322 299 254 189 216 240 246 167 146 165 164 153 147 151 158 157
342 341 342 342 341 341 341 339 338 338 337 336 335 335 333 333 332 334 334 336 332 334 336 337 340 336 338 342 57 68 118 271 328 255 2 73 126 142 154 144 126 115 114 101 116 136 122 109 94 155 105 84 284 157 246 218 112 211 252 16 312 206 221 243 261 284 299 265 268 256 337 311 289 323 248 181 243 254 356 113 135 143 150 150 154 164 164 166
340 339 340 341 341 339 339 339 337 335 336 336 334 333 333 332 333 331 333 330 331 331 334 337 338 337 350 9 19 339 50 252 254 296 42 101 122 135 134 101 127 123 121 146 148 138 124 132 158 147 87 152 214 151 251 127 249 219 261 295 255 242 235 250 257 277 279 271 255 294 294 273 215 226 350 244 251 301 98 112 135 141 147 155 156 159 158 160
337 338 339 340 339 339 337 336 335 334 334 334 331 331 332 330 328 328 327 328 328 329 331 336 341 336 43 82 75 350 274 236 234 315 70 106 118 113 123 131 150 138 136 110 127 151 123 231 152 179 205 181 223 120 242 143 294 224 238 252 268 269 281 271 298 278 273 280 249 315 275 272 266 205 260 250 336 152 121 118 141 146 153 162 164 161 163 170
336 336 338 337 338 336 335 334 334 333 331 330 330 329 327 327 323 322 322 324 323 325 325 333 338 344 35 34 44 18 262 222 21 41 104 108 110 117 63 113 144 127 120 181 111 143 180 194 170 186 126 127 155 202 157 138 234 179 223 216 250 260 291 295 223 277 286 256 259 265 281 292 32 122 282 294 144 138 129 132 145 153 163 165 163 161 170 179
334 335 335 336 336 336 335 334 333 331 330 328 327 328 327 321 320 317 319 317 318 317 317 324 346 338 40 40 107 246 253 65 72 101 111 121 115 127 137 139 156 137 106 139 193 182 150 148 172 123 328 214 133 266 134 216 224 280 255 304 283 286 263 247 295 272 307 296 216 201 257 302 264 137 228 224 145 153 141 150 157 161 167 163 166 168 179 189
336 336 336 335 335 335 334 334 331 330 328 327 327 326 321 317 313 312 310 311 307 311 310 311 350 356 271 104 180 224 279 95 100 101 127 118 124 179 184 166 169 173 157 168 230 237 179 175 127 135 179 120 126 278 262 236 351 274 299 290 293 345 333 261 210 253 152 259 200 164 326 307 31 216 240 193 143 149 147 158 163 158 162 162 163 172 184 193
336 335 335 335 334 334 334 332 331 328 328 326 323 322 318 315 310 306 305 302 301 295 292 307 244 209 311 315 228 233 271 216 112 360 287 283 260 221 187 171 182 180 184 163 190 219 223 176 156 175 215 113 184 190 192 134 257 350 15 174 333 355 331 301 295 357 150 264 150 144 283 274 270 244 314 188 142 138 141 165 170 162 158 162 167 180 188 192
335 335 335 334 334 333 333 333 330 329 327 326 324 322 320 312 307 303 299 290 287 274 261 223 194 217 182 238 271 233 229 258 305 295 256 159 145 253 175 192 191 193 145 133 151 181 187 203 126 174 153 118 268 295 9 343 18 209 259 103 273 18 286 284 296 300 357 242 176 147 212 284 284 290 239 190 162 155 166 173 175 177 164 171 180 187 195 201
334 335 334 334 333 332 333 332 330 329 327 326 323 322 318 313 307 301 293 283 264 238 203 121 11 149 50 268 257 276 242 124 252 238 213 154 180 267 197 171 194 185 181 138 96 174 193 144 22 52 256 280 59 26 326 9 2 349 16 287 338 162 276 309 330 147 284 322 83 95 296 243 272 287 203 179 176 172 164 176 184 185 178 180 183 195 200 209
333 333 333 333 333 332 331 331 330 329 328 324 324 321 319 311 309 304 290 232 176 153 87 76 213 178 80 301 293 335 95 177 263 238 209 179 177 207 176 164 132 149 114 299 205 297 71 135 151 193 242 1 63 108 348 16 342 354 107 294 303 334 255 340 325 342 293 256 1 131 250 329 309 291 267 199 178 187 175 183 190 188 187 186 188 197 205 208
332 331 332 331 331 332 331 330 330 329 327 326 325 321 319 314 325 96 137 140 148 108 141 107 148 206 319 233 296 339 285 247 228 27 119 209 180 150 105 110 143 98 111 24 94 122 310 140 272 65 26 185 155 104 18 324 297 321 4 223 216 267 306 263 304 311 15 65 332 1 203 245 256 288 36 216 196 179 188 199 199 191 188 191 196 202 204 200
330 330 330 330 329 331 330 329 328 328 326 327 327 324 315 318 88 98 76 65 94 92 314 254 171 312 276 17 256 243 229 277 309 193 171 216 155 169 85 99 72 113 118 83 20 126 261 204 34 188 354 56 120 101 153 225 189 215 293 355 323 315 210 222 151 264 13 25 3 333 278 262 272 279 271 215 199 191 200 199 199 197 194 191 198 203 199 151
329 329 330 329 329 329 329 327 327 326 326 327 327 330 349 62 25 99 101 136 95 29 14 258 137 155 202 193 283 313 284 242 281 181 262 112 147 132 67 102 112 114 25 95 286 122 334 68 33 56 238 157 179 172 183 202 156 166 161 181 190 285 281 194 234 283 352 328 332 304 273 278 280 283 270 244 210 202 217 209 204 205 199 196 199 199 176 149
328 329 328 327 327 327 327 325 324 324 327 327 348 3 32 21 6 343 318 80 215 204 195 182 212 275 311 288 270 249 247 22 244 302 67 176 117 127 71 126 33 63 114 178 209 206 136 150 179 214 189 185 218 185 193 190 145 128 132 162 231 249 274 232 214 251 187 316 255 255 256 259 278 273 264 218 210 221 223 207 207 205 196 194 183 179 157 147
328 328 327 326 325 326 324 324 323 323 324 305 292 130 72 143 59 305 288 245 232 236 243 239 198 211 227 192 63 29 5 320 91 301 301 116 90 118 230 115 89 206 252 178 144 241 90 164 234 204 180 170 197 190 122 103 85 197 257 265 284 210 271 321 290 230 229 166 288 283 333 279 265 275 263 212 178 216 216 209 212 208 200 194 173 160 146 156
328 326 326 325 325 324 323 321 322 323 328 139 30 69 210 221 143 178 92 308 273 224 221 235 228 251 256 252 240 65 56 321 304 255 260 148 194 157 256 137 151 192 232 100 49 103 102 201 239 185 196 157 94 116 144 169 177 88 190 244 287 266 255 282 259 287 269 132 251 297 329 289 283 274 272 178 191 216 214 201 204 200 193 185 167 160 149 158
327 327 326 326 324 323 322 321 322 9 66 40 28 92 225 224 359 317 177 280 278 212 218 225 214 239 260 266 186 137 168 215 242 284 168 145 122 207 149 139 183 166 86 118 167 159 279 275 218 199 143 141 87 111 116 77 73 161 114 147 252 231 354 304 296 351 336 161 282 284 288 283 284 283 270 235 200 224 224 211 210 198 186 179 173 172 167 162
328 328 326 325 324 323 322 323 345 91 43 63 222 217 230 346 358 3 106 241 294 310 213 206 197 218 239 169 209 154 174 237 145 262 193 133 157 177 132 179 147 128 202 175 183 175 208 204 133 126 147 158 199 176 139 166 269 264 194 215 256 275 216 201 267 336 306 294 210 267 325 300 299 326 330 299 280 270 258 232 87 136 153 139 145 161 176 174
326 328 326 323 326 324 322 329 44 325 304 287 229 251 272 267 278 184 121 316 337 286 251 319 167 237 225 117 140 166 223 329 208 209 169 146 150 105 212 161 107 208 207 177 126 195 264 252 115 114 133 170 178 244 219 166 248 308 226 208 224 216 240 255 280 15 19 325 325 179 8 301 280 281 264 297 329 275 268 169 185 149 141 149 160 175 173 170
325 326 325 323 326 330 316 21 306 321 329 257 190 152 196 318 338 199 99 72 314 271 324 339 148 316 128 35 152 170 101 251 209 205 160 182 157 146 94 170 148 217 201 137 182 198 221 139 161 186 162 161 170 207 234 146 196 36 271 196 213 214 222 241 242 95 275 217 314 54 113 274 317 334 305 312 311 292 332 175 169 154 150 158 169 173 171 167
324 323 322 323 327 338 7 272 355 312 337 307 44 357 332 313 299 142 32 360 1 253 98 256 89 233 156 183 165 165 103 265 346 143 172 195 167 169 132 206 46 19 130 153 43 264 131 177 164 127 148 158 126 249 235 157 120 242 247 165 184 197 214 235 126 180 238 274 293 43 134 228 305 302 286 298 359 343 4 166 170 165 161 164 174 171 169 166
321 321 319 320 323 334 275 295 322 309 234 125 321 338 348 321 101 63 77 31 335 260 25 324 221 145 87 197 175 179 205 221 58 272 187 216 106 6 151 195 173 183 172 102 194 255 154 185 161 152 146 143 210 204 185 157 152 218 238 158 170 187 205 172 159 185 225 359 286 325 217 289 265 265 308 341 10 346 343 324 193 178 171 167 168 166 166 166
319 318 317 316 318 311 281 244 242 248 240 325 325 333 338 25 104 99 116 101 259 62 94 115 262 42 13 60 256 277 345 329 50 314 118 40 246 139 189 205 191 164 187 173 203 214 268 172 198 166 149 209 224 205 164 167 203 264 165 173 97 110 105 152 160 148 300 97 269 258 226 224 289 277 332 332 71 341 294 316 227 191 178 172 151 156 154 161
316 315 314 315 316 325 2 222 230 237 318 323 315 315 336 67 39 41 12 243 308 1 3 281 85 305 345 136 250 253 276 301 102 37 128 151 225 29 60 130 122 104 205 327 265 215 215 313 149 119 186 212 194 209 172 188 200 116 99 101 29 41 51 46 80 107 70 286 252 221 229 165 278 270 248 21 260 271 301 298 226 193 181 177 168 153 160 165
313 311 309 308 290 289 304 275 256 253 253 294 299 323 70 41 126 98 140 231 348 280 347 14 348 358 356 27 315 278 213 246 342 134 134 62 58 65 83 33 49 64 34 351 286 322 352 37 135 235 182 160 144 220 232 210 205 164 301 129 105 284 11 45 341 42 110 267 260 212 202 166 189 290 281 248 281 269 247 247 218 204 185 177 174 164 158 175
312 308 302 293 257 236 210 231 241 79 342 313 1 53 85 153 3 143 207 303 95 310 20 307 329 352 314 318 212 285 184 118 170 145 162 174 146 164 219 164 161 92 317 228 253 9 281 222 228 273 245 183 174 207 311 9 232 130 98 59 102 274 42 314 11 267 209 221 249 123 137 86 236 218 244 303 297 286 238 231 226 215 195 178 179 174 173 177
311 308 299 283 254 229 237 251 311 319 332 344 65 48 70 103 219 259 320 336 191 34 292 271 303 320 300 336 328 266 278 168 253 130 108 9 138 213 208 157 194 145 191 253 209 9 277 297 276 252 326 201 146 184 260 293 146 125 156 159 95 156 70 244 270 223 315 288 251 177 230 257 248 296 255 300 302 289 274 235 221 214 206 189 181 175 173 183
311 309 297 247 227 220 223 226 240 307 345 31 72 50 55 87 239 225 336 294 282 299 305 342 317 311 358 55 301 351 26 355 137 165 139 161 114 197 280 300 149 206 101 142 153 192 352 349 283 147 253 208 169 190 196 179 162 195 132 156 181 148 160 211 198 214 220 226 285 289 141 235 141 237 303 301 303 301 292 221 183 200 218 199 173 174 182 190
313 298 257 282 248 232 218 211 210 238 66 69 58 88 136 232 220 182 305 308 300 312 301 323 297 5 310 1 293 327 176 293 22 101 75 131 211 171 180 217 233 103 128 140 265 81 199 202 255 229 136 129 176 243 137 97 100 194 165 74 80 232 144 193 205 167 241 342 348 355 197 177 203 265 282 314 321 335 21 74 117 180 194 175 166 188 196 196
320 289 138 245 229 242 183 191 170 85 94 61 80 71 165 197 58 165 72 206 307 342 307 335 42 38 312 314 307 15 312 122 331 66 4 162 229 193 208 179 181 192 143 173 196 185 24 293 270 311 186 196 229 160 224 140 214 240 104 186 213 164 115 78 80 29 112 47 247 143 320 304 301 321 270 334 338 10 197 116 144 119 63 53 37 11 334 332
327 325 57 262 257 135 147 154 165 113 69 93 93 226 205 274 200 159 280 358 262 276 21 44 311 45 344 316 286 335 312 52 14 96 249 290 327 215 229 251 160 166 207 135 292 188 141 242 295 73 304 287 208 204 198 228 144 92 174 240 133 110 114 132 206 350 68 179 255 51 237 303 27 268 342 338 329 14 11 67 113 65 67 69 78 70 52 54
330 317 271 287 241 127 142 157 137 61 79 80 113 221 237 50 173 175 251 354 11 349 74 125 273 64 328 26 303 299 315 78 301 41 202 198 201 195 108 171 268 200 208 183 180 268 141 328 300 259 236 271 340 126 6 347 334 157 198 180 117 276 252 319 93 216 193 266 268 324 288 249 176 252 352 191 344 0 8 22 55 64 83 88 67 59 78 90
284 339 39 334 124 149 153 163 82 79 61 58 262 32 253 235 257 221 243 63 203 73 100 238 164 297 49 319 244 297 311 51 278 173 110 248 126 196 181 163 98 341 206 169 160 175 32 168 292 290 216 303 359 51 268 287 325 5 99 95 13 108 158 127 201 171 120 230 62 291 42 243 210 217 192 261 17 12 21 34 35 45 23 28 68 67 61 77
71 46 345 21 126 157 165 141 51 48 72 100 206 214 219 251 274 266 274 169 293 132 244 191 235 291 330 235 203 283 300 101 151 263 100 279 159 350 14 328 169 348 30 119 125 150 89 104 214 279 287 359 324 357 246 160 151 104 138 273 357 23 211 103 37 89 177 169 181 166 298 276 265 226 233 319 6 29 40 76 62 44 39 31 41 68 23 31
277 103 277 119 160 157 154 39 51 45 95 238 147 240 338 221 305 273 281 206 212 244 200 185 178 217 225 341 329 235 297 18 301 63 191 310 129 337 321 297 3 46 12 23 64 70 86 91 187 317 4 12 245 254 252 52 200 180 156 193 171 119 125 161 252 21 84 102 204 134 239 268 271 292 348 46 37 55 75 90 78 71 63 44 41 53 75 23
63 82 278 157 148 157 67 42 22 204 97 135 322 179 276 320 10 276 299 319 176 268 19 199 267 217 196 224 219 319 15 310 343 74 290 153 279 124 310 330 177 158 116 193 188 221 149 158 97 307 202 271 245 270 342 353 72 232 130 181 151 122 104 97 170 242 51 47 116 152 110 275 262 100 49 78 69 69 73 88 79 78 85 83 55 53 105 90
63 144 299 124 175 72 66 52 290 50 153 235 290 303 245 297 214 271 346 325 346 335 331 186 227 287 250 204 303 332 11 294 331 281 278 336 266 265 298 309 254 62 92 256 26 302 87 63 62 296 318 295 306 295 298 358 16 11 4 44 93 167 179 167 164 182 139 159 90 358 217 250 307 88 77 100 102 89 83 95 106 84 94 98 103 63 60 71
121 119 54 10 40 97 78 261 332 315 288 320 34 270 263 221 78 337 13 301 166 332 78 284 344 116 271 355 329 278 322 18 48 42 39 30 359 315 342 328 225 72 95 220 129 246 74 299 121 38 10 338 341 349 1 344 47 79 326 319 318 49 72 169 111 104 102 222 168 127 220 268 127 100 93 112 90 77 70 41 72 88 59 50 46 32 18 32
100 4 47 307 2 72 240 185 149 164 284 5 337 351 349 348 200 237 203 288 321 224 59 299 221 297 321 337 298 306 298 152 268 359 193 46 314 326 336 0 349 102 358 205 151 78 97 203 141 179 171 173 197 241 246 264 257 281 9 337 351 36 148 114 145 55 166 297 111 135 236 260 144 137 119 100 90 74 58 65 47 58 88 89 70 59 36 31
149 128 311 359 4 35 84 107 108 136 92 18 19 288 104 338 326 308 149 265 224 329 138 265 323 58 359 19 354 355 335 324 88 322 36 357 322 345 310 333 24 47 69 62 50 77 120 115 85 145 163 190 202 220 249 156 22 58 304 19 331 328 333 94 102 86 185 198 208 237 179 157 152 140 138 119 87 99 90 61 61 60 44 66 85 68 64 53
264 99 151 175 338 35 182 7 106 70 264 150 81 314 340 313 261 322 192 73 343 35 340 51 359 35 334 32 328 308 355 331 354 68 1 335 268 291 304 303 355 13 5 79 12 85 71 64 28 95 67 294 268 234 290 55 121 83 37 332 330 349 330 61 110 161 165 88 301 284 203 139 161 141 140 120 96 81 76 68 62 58 68 70 78 91 85 74
99 239 117 178 129 222 53 330 101 98 71 112 277 60 318 357 357 24 325 38 311 9 96 320 34 55 268 293 310 286 345 12 26 4 324 5 353 336 353 344 47 342 11 40 8 107 127 118 222 84 37 1 346 354 340 83 71 106 70 27 4 339 9 97 217 214 119 131 194 219 138 139 154 146 132 128 137 122 92 83 75 80 78 74 76 77 75 70
128 145 175 302 142 276 143 149 109 95 79 54 258 39 339 35 347 258 204 318 24 342 70 63 310 332 333 13 104 301 2 61 341 324 43 335 57 316 18 331 316 12 9 33 19 94 90 67 116 112 106 26 4 9 22 94 119 44 37 22 5 7 30 47 59 14 84 123 168 122 103 69 75 128 121 120 96 98 96 82 72 67 62 71 76 64 60 59
230 114 221 11 85 102 262 50 94 61 56 331 32 292 143 343 343 329 331 133 349 317 39 83 298 306 16 41 58 55 298 144 169 334 259 104 348 57 151 215 282 327 2 1 34 334 101 204 108 104 65 360 347 345 37 54 92 83 29 24 14 357 26 26 44 29 26 93 102 96 89 57 336 58 98 80 96 99 84 75 76 77 61 64 71 64 56 42
191 163 150 118 63 321 7 26 50 82 55 341 61 288 43 319 316 263 264 219 163 224 331 316 292 318 95 43 3 305 265 181 210 233 228 168 174 213 130 251 146 345 326 342 16 331 68 142 74 94 75 332 340 355 330 18 80 94 35 12 2 2 21 349 3 336 304 141 122 109 110 132 23 81 92 90 79 72 79 78 77 62 66 64 57 58 61 63
73 322 87 103 88 331 63 36 43 58 25 229 178 264 184 278 281 315 344 315 325 245 215 270 273 111 325 40 324 279 311 210 238 242 234 219 212 238 223 244 144 169 278 316 335 58 78 131 106 100 89 249 296 333 330 360 29 353 3 342 332 293 251 287 307 354 354 311 138 153 175 125 135 131 98 59 66 58 50 38 53 62 58 58 58 56 51 46